Location: *
(33.8649°S, 62.1526°E)
Time: 13:03:32
(UTC+00:00)

Cosmos 1697 Rocket - Pass Details

Date: 17 January 2021
Orbit: 832 x 843 km, 71.0° (Epoch: 02 March)

Event Time Altitude Azimuth Distance (km) Brightness Sun altitude
Rises 18:57:03 0° 192° (SSW) 3,412 6.9 -33.4°
Reaches altitude 10° 18:59:43 10° 183° (S) 2,472 5.9 -33.6°
Enters shadow 19:03:40 32° 144° (SE) 1,409 4.0 -33.8°
